SPACEBEE-20 (46301 NORAD) Tracking and Keplerian Element Data

This shows tracking and keplerian element data for the satellite.

Feedback or suggestion? Click here.




ElementValue
Catalog46301
NameSPACEBEE-20
Epoch Orbit307
Epoch Day268.1424213
Epoch Year2020
RAAN340.9054
Inclination97.5182
Eccentricity0.0001524
Argument of Perigee129.4093
Mean Anonmoly230.7271
Mean Motion15.10646201
Decay Rate1.682E-05
L11 46301U 20061AF 20268.14242130 .00001682 00000-0 10554-3 0 9993
L22 46301 97.5182 340.9054 0001524 129.4093 230.7271 15.10646201 3071

Live tracking and technical data element details for SPACEBEE-20 (NORAD 46301). SPACEBEE-20 can be tracked NOW for your location showing map with azimuth and elevation plus other details from your city location.

Track the satellite on the map from your city or location and see movement details for azimuth, elevation, latitude, longitude, range, height, and movement on the map or in text.







IsCatalogInMostPopularTable: catalog: 46301, numindb: 1
Update: records affected: 1



GetName: 46301 SPACEBEE-20

Hit Count: updated at: Sat, 26 Sep 2020 14:28:12 GMT